Time,TemperatureF,DewpointF,PressureIn,WindDirection,WindDirectionDegrees,WindSpeedMPH,WindSpeedGustMPH,Humidity,HourlyPrecipIn,Conditions,Clouds,dailyrainin,SoftwareType,DateUTC
2013-02-24 00:02:00,33.9,33.0,29.83,NW,314,1.0,4.0,97,0.01,,,0.00,weatherlink.com 1.10,2013-02-24 05:02:00,
2013-02-24 00:17:00,34.0,33.0,29.83,WNW,290,1.0,5.0,97,0.01,,,0.00,weatherlink.com 1.10,2013-02-24 05:17:00,
2013-02-24 00:32:00,34.0,33.0,29.82,NW,307,0.0,6.0,97,0.01,,,0.00,weatherlink.com 1.10,2013-02-24 05:32:00,
2013-02-24 00:47:00,34.1,33.0,29.81,NW,312,1.0,4.0,96,0.01,,,0.00,weatherlink.com 1.10,2013-02-24 05:47:00,
2013-02-24 01:02:00,34.2,33.0,29.81,NW,316,1.0,5.0,96,0.00,,,0.00,weatherlink.com 1.10,2013-02-24 06:02:00,
2013-02-24 01:17:00,34.3,33.0,29.80,WNW,302,5.0,8.0,96,0.00,,,0.00,weatherlink.com 1.10,2013-02-24 06:17:00,
2013-02-24 01:32:00,34.3,33.0,29.80,WNW,287,0.0,2.0,96,0.00,,,0.00,weatherlink.com 1.10,2013-02-24 06:32:00,
2013-02-24 01:47:00,34.4,33.0,29.79,NW,315,0.0,5.0,96,0.00,,,0.00,weatherlink.com 1.10,2013-02-24 06:47:00,
2013-02-24 02:02:00,34.4,33.0,29.79,WNW,290,1.0,4.0,96,0.00,,,0.00,weatherlink.com 1.10,2013-02-24 07:02:00,
2013-02-24 02:17:00,34.4,33.0,29.80,NW,304,1.0,2.0,96,0.00,,,0.00,weatherlink.com 1.10,2013-02-24 07:17:00,
2013-02-24 02:32:00,34.5,34.0,29.80,NW,315,1.0,4.0,96,0.00,,,0.00,weatherlink.com 1.10,2013-02-24 07:32:00,
2013-02-24 02:47:00,34.4,33.0,29.79,WNW,302,1.0,3.0,96,0.00,,,0.00,weatherlink.com 1.10,2013-02-24 07:47:00,
2013-02-24 03:02:00,34.5,34.0,29.79,NW,313,1.0,4.0,96,0.00,,,0.00,weatherlink.com 1.10,2013-02-24 08:02:00,
2013-02-24 03:17:00,34.3,33.0,29.78,WNW,290,0.0,3.0,96,0.00,,,0.00,weatherlink.com 1.10,2013-02-24 08:17:00,
2013-02-24 03:32:00,34.3,33.0,29.77,West,269,1.0,5.0,96,0.00,,,0.00,weatherlink.com 1.10,2013-02-24 08:32:00,
2013-02-24 03:47:00,34.4,33.0,29.77,WNW,293,3.0,5.0,96,0.00,,,0.00,weatherlink.com 1.10,2013-02-24 08:47:00,
2013-02-24 04:03:00,34.4,33.0,29.78,WNW,297,2.0,4.0,96,0.00,,,0.00,weatherlink.com 1.10,2013-02-24 09:03:00,
2013-02-24 04:17:00,34.4,33.0,29.78,NW,304,2.0,4.0,96,0.00,,,0.00,weatherlink.com 1.10,2013-02-24 09:17:00,
2013-02-24 04:32:00,34.2,33.0,29.78,NW,307,2.0,4.0,96,0.00,,,0.00,weatherlink.com 1.10,2013-02-24 09:32:00,
2013-02-24 04:47:00,34.3,34.0,29.79,NW,308,2.0,6.0,97,0.00,,,0.00,weatherlink.com 1.10,2013-02-24 09:47:00,
2013-02-24 05:02:00,34.2,34.0,29.79,WNW,302,1.0,3.0,97,0.00,,,0.00,weatherlink.com 1.10,2013-02-24 10:02:00,
2013-02-24 05:17:00,34.1,33.0,29.78,NW,317,0.0,2.0,97,0.00,,,0.00,weatherlink.com 1.10,2013-02-24 10:17:00,
2013-02-24 05:32:00,34.2,34.0,29.78,WNW,290,0.0,4.0,97,0.00,,,0.00,weatherlink.com 1.10,2013-02-24 10:32:00,
2013-02-24 05:47:00,34.1,33.0,29.77,NW,314,1.0,3.0,97,0.00,,,0.00,weatherlink.com 1.10,2013-02-24 10:47:00,
2013-02-24 06:02:00,34.2,34.0,29.77,NW,307,1.0,4.0,97,0.00,,,0.00,weatherlink.com 1.10,2013-02-24 11:02:00,
2013-02-24 06:17:00,34.1,33.0,29.77,West,281,0.0,3.0,97,0.00,,,0.00,weatherlink.com 1.10,2013-02-24 11:17:00,
2013-02-24 06:32:00,34.2,34.0,29.76,WNW,300,3.0,5.0,97,0.00,,,0.00,weatherlink.com 1.10,2013-02-24 11:32:00,
2013-02-24 06:47:00,34.3,34.0,29.76,West,276,3.0,4.0,97,0.00,,,0.00,weatherlink.com 1.10,2013-02-24 11:47:00,
2013-02-24 07:02:00,34.5,34.0,29.77,West,277,2.0,3.0,97,0.00,,,0.00,weatherlink.com 1.10,2013-02-24 12:02:00,
2013-02-24 07:17:00,34.7,34.0,29.77,NW,309,4.0,4.0,97,0.00,,,0.00,weatherlink.com 1.10,2013-02-24 12:17:00,
2013-02-24 07:32:00,34.9,34.0,29.76,WNW,290,1.0,4.0,96,0.00,,,0.00,weatherlink.com 1.10,2013-02-24 12:32:00,
2013-02-24 07:47:00,35.1,34.0,29.76,NW,310,1.0,4.0,96,0.00,,,0.00,weatherlink.com 1.10,2013-02-24 12:47:00,
2013-02-24 08:02:00,35.5,35.0,29.75,NNW,328,2.0,5.0,96,0.00,,,0.00,weatherlink.com 1.10,2013-02-24 13:02:00,
2013-02-24 08:17:00,36.0,35.0,29.75,NW,311,2.0,4.0,95,0.00,,,0.00,weatherlink.com 1.10,2013-02-24 13:17:00,
2013-02-24 08:32:00,36.6,35.0,29.74,NW,310,1.0,4.0,94,0.00,,,0.00,weatherlink.com 1.10,2013-02-24 13:32:00,
2013-02-24 08:47:00,37.0,35.0,29.75,NW,314,2.0,4.0,93,0.00,,,0.00,weatherlink.com 1.10,2013-02-24 13:47:00,
2013-02-24 09:02:00,37.3,36.0,29.76,NW,307,1.0,5.0,93,0.00,,,0.00,weatherlink.com 1.10,2013-02-24 14:02:00,
2013-02-24 09:17:00,37.7,36.0,29.75,NW,321,2.0,5.0,92,0.00,,,0.00,weatherlink.com 1.10,2013-02-24 14:17:00,
2013-02-24 09:32:00,37.9,36.0,29.74,WNW,290,4.0,8.0,91,0.00,,,0.00,weatherlink.com 1.10,2013-02-24 14:32:00,
2013-02-24 09:47:00,38.0,36.0,29.74,WNW,287,1.0,6.0,91,0.00,,,0.00,weatherlink.com 1.10,2013-02-24 14:47:00,
2013-02-24 10:03:00,38.3,36.0,29.75,WNW,301,1.0,5.0,90,0.00,,,0.00,weatherlink.com 1.10,2013-02-24 15:03:00,
2013-02-24 10:18:00,38.5,36.0,29.74,WSW,255,3.0,5.0,89,0.00,,,0.00,weatherlink.com 1.10,2013-02-24 15:18:00,
2013-02-24 10:33:00,38.8,36.0,29.75,WNW,290,4.0,6.0,88,0.00,,,0.00,weatherlink.com 1.10,2013-02-24 15:33:00,
2013-02-24 10:48:00,39.2,36.0,29.74,West,262,4.0,10.0,87,0.00,,,0.00,weatherlink.com 1.10,2013-02-24 15:48:00,
2013-02-24 11:03:00,39.3,36.0,29.75,WNW,297,3.0,9.0,87,0.00,,,0.00,weatherlink.com 1.10,2013-02-24 16:03:00,
2013-02-24 11:18:00,39.2,36.0,29.75,NNE,29,3.0,10.0,88,0.00,,,0.00,weatherlink.com 1.10,2013-02-24 16:18:00,
2013-02-24 11:33:00,39.2,37.0,29.75,WNW,290,2.0,6.0,90,0.00,,,0.00,weatherlink.com 1.10,2013-02-24 16:33:00,
2013-02-24 11:48:00,38.9,37.0,29.74,WNW,301,2.0,8.0,92,0.00,,,0.00,weatherlink.com 1.10,2013-02-24 16:48:00,
2013-02-24 12:03:00,38.9,37.0,29.74,WNW,301,1.0,8.0,92,0.00,,,0.00,weatherlink.com 1.10,2013-02-24 17:03:00,
2013-02-24 12:18:00,39.3,37.0,29.73,North,6,4.0,8.0,91,0.00,,,0.00,weatherlink.com 1.10,2013-02-24 17:18:00,
2013-02-24 12:33:00,39.5,37.0,29.73,NNW,335,1.0,8.0,90,0.00,,,0.00,weatherlink.com 1.10,2013-02-24 17:33:00,
2013-02-24 12:48:00,40.0,37.0,29.73,NW,318,1.0,7.0,87,0.00,,,0.00,weatherlink.com 1.10,2013-02-24 17:48:00,
2013-02-24 13:03:00,40.3,37.0,29.73,WNW,290,5.0,8.0,87,0.00,,,0.00,weatherlink.com 1.10,2013-02-24 18:03:00,
2013-02-24 13:18:00,40.1,37.0,29.73,NNW,328,4.0,6.0,88,0.00,,,0.00,weatherlink.com 1.10,2013-02-24 18:18:00,
2013-02-24 13:33:00,40.0,37.0,29.73,WNW,294,3.0,8.0,88,0.00,,,0.00,weatherlink.com 1.10,2013-02-24 18:33:00,
2013-02-24 13:48:00,40.6,37.0,29.73,WNW,300,3.0,7.0,85,0.00,,,0.00,weatherlink.com 1.10,2013-02-24 18:48:00,
2013-02-24 14:03:00,41.5,36.0,29.72,NW,304,4.0,7.0,82,0.00,,,0.00,weatherlink.com 1.10,2013-02-24 19:03:00,
2013-02-24 14:18:00,41.8,36.0,29.72,NW,323,4.0,10.0,79,0.00,,,0.00,weatherlink.com 1.10,2013-02-24 19:18:00,
2013-02-24 14:33:00,41.7,35.0,29.73,NW,307,3.0,10.0,78,0.00,,,0.00,weatherlink.com 1.10,2013-02-24 19:33:00,
2013-02-24 14:48:00,41.5,35.0,29.73,NNW,335,2.0,7.0,78,0.00,,,0.00,weatherlink.com 1.10,2013-02-24 19:48:00,
2013-02-24 15:03:00,41.0,34.0,29.74,WNW,296,4.0,8.0,75,0.00,,,0.00,weatherlink.com 1.10,2013-02-24 20:03:00,
2013-02-24 15:18:00,40.7,33.0,29.74,NNW,344,5.0,11.0,74,0.00,,,0.00,weatherlink.com 1.10,2013-02-24 20:18:00,
2013-02-24 15:33:00,40.5,33.0,29.74,West,279,2.0,11.0,74,0.00,,,0.00,weatherlink.com 1.10,2013-02-24 20:33:00,
2013-02-24 15:48:00,40.3,33.0,29.74,WNW,287,3.0,12.0,74,0.00,,,0.00,weatherlink.com 1.10,2013-02-24 20:48:00,
2013-02-24 16:03:00,40.0,33.0,29.75,WSW,252,2.0,8.0,75,0.00,,,0.00,weatherlink.com 1.10,2013-02-24 21:03:00,
2013-02-24 16:18:00,39.7,32.0,29.75,NW,313,7.0,9.0,75,0.00,,,0.00,weatherlink.com 1.10,2013-02-24 21:18:00,
2013-02-24 16:33:00,39.5,33.0,29.76,WNW,302,3.0,7.0,76,0.00,,,0.00,weatherlink.com 1.10,2013-02-24 21:33:00,
2013-02-24 16:48:00,39.3,32.0,29.76,WNW,301,3.0,7.0,76,0.00,,,0.00,weatherlink.com 1.10,2013-02-24 21:48:00,
2013-02-24 17:03:00,39.2,32.0,29.77,WNW,297,3.0,9.0,76,0.00,,,0.00,weatherlink.com 1.10,2013-02-24 22:03:00,
2013-02-24 17:18:00,38.7,31.0,29.78,NW,304,2.0,9.0,75,0.00,,,0.00,weatherlink.com 1.10,2013-02-24 22:18:00,
2013-02-24 17:33:00,38.1,30.0,29.80,SW,236,9.0,13.0,73,0.00,,,0.00,weatherlink.com 1.10,2013-02-24 22:33:00,
2013-02-24 17:48:00,37.6,29.0,29.81,WNW,299,4.0,15.0,72,0.00,,,0.00,weatherlink.com 1.10,2013-02-24 22:48:00,
2013-02-24 18:03:00,36.9,28.0,29.82,NW,308,3.0,10.0,71,0.00,,,0.00,weatherlink.com 1.10,2013-02-24 23:03:00,
2013-02-24 18:18:00,36.7,28.0,29.82,WNW,299,5.0,11.0,70,0.00,,,0.00,weatherlink.com 1.10,2013-02-24 23:18:00,
2013-02-24 18:33:00,36.6,28.0,29.83,WNW,299,6.0,7.0,70,0.00,,,0.00,weatherlink.com 1.10,2013-02-24 23:33:00,
2013-02-24 18:48:00,36.4,26.0,29.84,NW,304,5.0,13.0,67,0.00,,,0.00,weatherlink.com 1.10,2013-02-24 23:48:00,
2013-02-24 19:03:00,36.3,27.0,29.85,ENE,70,3.0,11.0,69,0.00,,,0.00,weatherlink.com 1.10,2013-02-25 00:03:00,
2013-02-24 19:18:00,36.1,27.0,29.86,NNW,341,2.0,10.0,69,0.00,,,0.00,weatherlink.com 1.10,2013-02-25 00:18:00,
2013-02-24 19:33:00,35.7,26.0,29.86,NW,312,2.0,14.0,69,0.00,,,0.00,weatherlink.com 1.10,2013-02-25 00:33:00,
2013-02-24 19:48:00,35.3,26.0,29.87,NW,307,6.0,11.0,69,0.00,,,0.00,weatherlink.com 1.10,2013-02-25 00:48:00,
2013-02-24 20:04:00,35.0,26.0,29.88,WNW,300,3.0,13.0,71,0.00,,,0.00,weatherlink.com 1.10,2013-02-25 01:04:00,
2013-02-24 20:18:00,33.9,27.0,29.89,WNW,292,2.0,12.0,77,0.00,,,0.00,weatherlink.com 1.10,2013-02-25 01:18:00,
2013-02-24 20:33:00,32.7,28.0,29.90,NNW,329,6.0,10.0,84,0.00,,,0.00,weatherlink.com 1.10,2013-02-25 01:33:00,
2013-02-24 20:49:00,32.2,29.0,29.90,NW,318,4.0,8.0,86,0.00,,,0.00,weatherlink.com 1.10,2013-02-25 01:49:00,
2013-02-24 21:04:00,32.1,29.0,29.91,NW,316,3.0,8.0,87,0.00,,,0.00,weatherlink.com 1.10,2013-02-25 02:04:00,
2013-02-24 21:19:00,32.0,29.0,29.91,WNW,284,1.0,6.0,87,0.00,,,0.00,weatherlink.com 1.10,2013-02-25 02:19:00,
2013-02-24 21:34:00,32.0,29.0,29.91,NW,304,6.0,9.0,87,0.00,,,0.00,weatherlink.com 1.10,2013-02-25 02:34:00,
2013-02-24 21:49:00,32.3,29.0,29.92,WNW,296,3.0,11.0,86,0.00,,,0.00,weatherlink.com 1.10,2013-02-25 02:49:00,
2013-02-24 22:04:00,32.4,28.0,29.92,WNW,293,3.0,9.0,85,0.00,,,0.00,weatherlink.com 1.10,2013-02-25 03:04:00,
2013-02-24 22:19:00,32.6,28.0,29.92,NW,307,8.0,11.0,83,0.00,,,0.00,weatherlink.com 1.10,2013-02-25 03:19:00,
2013-02-24 22:34:00,32.7,28.0,29.92,West,273,5.0,9.0,83,0.00,,,0.00,weatherlink.com 1.10,2013-02-25 03:34:00,
2013-02-24 22:49:00,33.0,27.0,29.92,WNW,284,2.0,12.0,80,0.00,,,0.00,weatherlink.com 1.10,2013-02-25 03:49:00,
2013-02-24 23:04:00,33.1,27.0,29.92,NW,314,2.0,10.0,79,0.00,,,0.00,weatherlink.com 1.10,2013-02-25 04:04:00,
2013-02-24 23:19:00,33.1,27.0,29.92,SW,218,5.0,10.0,79,0.00,,,0.00,weatherlink.com 1.10,2013-02-25 04:19:00,
2013-02-24 23:34:00,33.2,27.0,29.93,WNW,293,2.0,11.0,78,0.00,,,0.00,weatherlink.com 1.10,2013-02-25 04:34:00,
2013-02-24 23:49:00,33.3,26.0,29.93,NW,312,2.0,13.0,75,0.00,,,0.00,weatherlink.com 1.10,2013-02-25 04:49:00,